Tracking 35275 objects as of 8-Sep-2026
HD Live streaming from Space Station
objects crossing your sky now

FREGAT DEB


FREGAT DEB is no longer on orbit


NORAD ID: 45614
Int'l Code: 2011-037H
Launch date: July 18, 2011
Source: Commonwealth of Independent States (former USSR) (CIS)
Launch site: TYURATAM MISSILE AND SPACE COMPLEX (TTMTR)
Decay date: 2025-08-06

Note: This is SATELLITE DEBRIS
Your satellite tracking list
Your tracking list is empty




NASA's NSSDC Master Catalog

Two Line Element Set (TLE):
1 45614U 11037H   25217.17296151  .11752596  00000-0  13115+0 0  9997
2 45614  51.1620 220.1425 0035013 338.9930  20.9614 15.56278068232085
Source of the keplerian elements: AFSPC